Date String (YYYY-MM-DD hh:mm:ss) UTC,Instrument flags,Ambient pressure (hPa),Sample flow (lpm),Bypass flow (lpm),Sample temperature (°C),Ambient temperature (°C),ASC tube jacket temperature (°C),LED temperature (°C),Box temperature (°C),Sample RH (%),Span deviation,Mass concentration (μg/m³),Mass concentration (μg/m³),Mass concentration (μg/m³)
DateTimeUTC,F1_M11,P_M11,Q1_M11,Q2_M11,T1_M11,T2_M11,T3_M11,T4_M11,T5_M11,U1_M11,ZSPAN_M11,X0_M11,X2_M11,X1_M11
2022-11-14 19:00:00,,0826.1,5.00,0.00,22.1,20.7,00.0,31.0,23.9,08.6,0000.0,0009.17,0004.73,0004.29
2022-11-14 19:01:00,,0826.0,5.00,0.00,22.1,20.8,00.0,31.0,23.9,08.5,0000.0,0008.95,0004.75,0004.28
2022-11-14 19:02:00,,0826.0,5.00,0.00,22.1,20.8,00.0,31.0,24.0,08.5,0000.0,0009.06,0004.81,0004.31
2022-11-14 19:03:00,,0826.0,5.00,0.00,22.1,20.8,00.0,31.0,24.0,08.5,0000.0,0009.00,0004.83,0004.33
2022-11-14 19:04:00,,0826.0,5.00,0.00,22.1,20.8,00.0,31.0,23.9,08.5,0000.0,0008.65,0004.82,0004.35
2022-11-14 19:05:00,,0825.9,4.99,0.00,22.1,20.8,00.0,31.0,23.9,08.5,0000.0,0008.25,0004.78,0004.32
2022-11-14 19:06:00,,0825.9,5.00,0.00,22.1,20.9,00.0,31.0,24.0,08.5,0000.0,0008.26,0004.74,0004.31
2022-11-14 19:07:00,,0826.0,5.00,0.00,22.1,20.9,00.0,31.0,24.0,08.2,0000.0,0008.28,0004.71,0004.29
2022-11-14 19:08:00,,0825.9,5.00,0.00,22.1,20.9,00.0,31.0,24.0,08.2,0000.0,0008.28,0004.68,0004.28
2022-11-14 19:09:00,,0826.0,5.01,0.00,22.1,21.0,00.0,31.0,24.0,08.1,0000.0,0008.25,0004.68,0004.29
2022-11-14 19:10:00,,0825.9,5.01,0.00,22.1,21.0,00.0,31.0,24.0,08.2,0000.0,0008.20,0004.66,0004.29
2022-11-14 19:11:00,,0825.9,5.00,0.00,22.1,21.0,00.0,31.0,24.0,08.1,0000.0,0008.13,0004.64,0004.28
2022-11-14 19:12:00,,0825.9,5.00,0.00,22.1,21.0,00.0,31.0,24.1,08.2,0000.0,0008.01,0004.62,0004.28
2022-11-14 19:13:00,,0825.8,5.00,0.00,22.2,21.0,00.0,31.0,24.1,08.2,0000.0,0007.85,0004.55,0004.24
2022-11-14 19:14:00,,0825.8,5.00,0.00,22.2,21.0,00.0,31.0,24.1,08.2,0000.0,0008.57,0004.51,0004.20
2022-11-14 19:15:00,,0825.7,5.00,0.00,22.2,21.1,00.0,31.0,24.1,08.2,0000.0,0008.71,0004.46,0004.17
2022-11-14 19:16:00,,0825.9,5.00,0.00,22.2,21.1,00.0,31.0,24.1,08.2,0000.0,0008.59,0004.43,0004.15
2022-11-14 19:17:00,,0825.8,5.00,0.00,22.2,21.1,00.0,31.0,24.1,08.2,0000.0,0008.27,0004.42,0004.13
2022-11-14 19:18:00,,0826.1,5.01,0.00,22.2,21.1,00.0,31.1,24.2,08.1,0000.0,0008.53,0004.42,0004.13
2022-11-14 19:19:00,,0826.2,5.00,0.00,22.2,21.0,00.0,31.1,24.1,08.1,0000.0,0009.09,0004.40,0004.13
2022-11-14 19:20:00,,0826.2,5.00,0.00,22.2,21.0,00.0,31.1,24.1,08.0,0000.0,0009.16,0004.42,0004.13
2022-11-14 19:21:00,,0826.0,5.00,0.00,22.2,20.9,00.0,31.1,24.1,08.1,0000.0,0009.26,0004.47,0004.15
2022-11-14 19:22:00,,0826.0,5.01,0.00,22.2,20.9,00.0,31.1,24.1,08.2,0000.0,0009.51,0004.49,0004.16
2022-11-14 19:23:00,,0825.9,5.01,0.00,22.2,21.0,00.0,31.1,24.1,08.0,0000.0,0009.49,0004.47,0004.15
2022-11-14 19:24:00,,0825.8,5.00,0.00,22.2,21.0,00.0,31.1,24.1,08.1,0000.0,0009.69,0004.48,0004.15
2022-11-14 19:25:00,,0825.8,5.00,0.00,22.2,21.0,00.0,31.1,24.1,08.0,0000.0,0009.15,0004.48,0004.14
2022-11-14 19:26:00,,0825.8,5.00,0.00,22.2,21.0,00.0,31.1,24.1,07.9,0000.0,0008.90,0004.51,0004.14
2022-11-14 19:27:00,,0825.8,5.00,0.00,22.2,21.1,00.0,31.1,24.1,07.9,0000.0,0009.00,0004.53,0004.14
2022-11-14 19:28:00,,0826.0,5.00,0.00,22.2,21.1,00.0,31.1,24.1,08.0,0000.0,0008.97,0004.51,0004.13
2022-11-14 19:29:00,,0825.9,5.00,0.00,22.3,21.1,00.0,31.1,24.1,08.1,0000.0,0009.04,0004.47,0004.12
2022-11-14 19:30:00,,0825.7,4.98,0.00,22.3,21.2,00.0,31.1,24.2,08.0,0000.0,0008.38,0004.49,0004.13
2022-11-14 19:31:00,,0825.7,4.99,0.00,22.3,21.2,00.0,31.1,24.2,07.9,0000.0,0008.42,0004.47,0004.11
2022-11-14 19:32:00,,0825.7,5.00,0.00,22.3,21.2,00.0,31.1,24.2,07.9,0000.0,0008.40,0004.42,0004.07
2022-11-14 19:33:00,,0825.7,5.00,0.00,22.3,21.2,00.0,31.1,24.3,07.9,0000.0,0008.31,0004.42,0004.04
2022-11-14 19:34:00,,0825.6,5.00,0.00,22.3,21.1,00.0,31.2,24.2,07.9,0000.0,0008.80,0004.41,0004.03
2022-11-14 19:35:00,,0825.6,5.00,0.00,22.3,21.1,00.0,31.2,24.2,08.0,0000.0,0008.79,0004.40,0004.02
2022-11-14 19:36:00,,0825.6,5.01,0.00,22.3,21.2,00.0,31.2,24.3,08.0,0000.0,0008.50,0004.38,0004.02
2022-11-14 19:37:00,,0825.6,5.00,0.00,22.3,21.2,00.0,31.2,24.3,08.1,0000.0,0008.45,0004.37,0004.02
2022-11-14 19:38:00,,0825.6,4.99,0.00,22.3,21.2,00.0,31.2,24.3,08.0,0000.0,0008.45,0004.35,0004.00
2022-11-14 19:39:00,,0825.5,5.00,0.00,22.3,21.2,00.0,31.2,24.3,08.0,0000.0,0008.49,0004.33,0003.99
2022-11-14 19:40:00,,0825.5,5.00,0.00,22.3,21.2,00.0,31.2,24.2,08.0,0000.0,0008.19,0004.32,0003.98
2022-11-14 19:41:00,,0825.5,4.99,0.00,22.4,21.2,00.0,31.2,24.3,08.0,0000.0,0008.34,0004.31,0003.96
2022-11-14 19:42:00,,0825.4,4.99,0.00,22.4,21.2,00.0,31.2,24.3,08.0,0000.0,0008.35,0004.33,0003.96
2022-11-14 19:43:00,,0825.4,5.00,0.00,22.4,21.2,00.0,31.2,24.3,08.1,0000.0,0008.61,0004.34,0003.98
2022-11-14 19:44:00,,0825.4,5.01,0.00,22.4,21.3,00.0,31.2,24.3,08.1,0000.0,0009.53,0004.34,0004.02
2022-11-14 19:45:00,,0825.4,5.00,0.00,22.4,21.3,00.0,31.2,24.3,08.2,0000.0,0009.39,0004.40,0004.04
2022-11-14 19:46:00,,0825.4,5.00,0.00,22.4,21.3,00.0,31.3,24.3,08.2,0000.0,0009.30,0004.41,0004.06
2022-11-14 19:47:00,,0825.3,4.98,0.00,22.4,21.3,00.0,31.3,24.3,08.2,0000.0,0009.33,0004.43,0004.09
2022-11-14 19:48:00,,0825.4,5.01,0.00,22.4,21.3,00.0,31.3,24.4,08.2,0000.0,0009.36,0004.46,0004.10
2022-11-14 19:49:00,,0825.3,5.01,0.00,22.4,21.3,00.0,31.3,24.4,08.2,0000.0,0009.22,0004.47,0004.12
2022-11-14 19:50:00,,0825.3,5.00,0.00,22.4,21.3,00.0,31.3,24.4,08.1,0000.0,0009.20,0004.51,0004.13
2022-11-14 19:51:00,,0825.3,4.99,0.00,22.4,21.3,00.0,31.3,24.4,08.3,0000.0,0009.28,0004.54,0004.15
2022-11-14 19:52:00,,0825.4,5.00,0.00,22.4,21.3,00.0,31.3,24.4,08.3,0000.0,0009.18,0004.56,0004.17
2022-11-14 19:53:00,,0825.4,5.01,0.00,22.5,21.4,00.0,31.3,24.4,08.2,0000.0,0009.39,0004.61,0004.20
2022-11-14 19:54:00,,0825.4,5.01,0.00,22.5,21.4,00.0,31.3,24.4,08.2,0000.0,0009.12,0004.60,0004.21
2022-11-14 19:55:00,,0825.4,4.99,0.00,22.5,21.4,00.0,31.3,24.4,08.2,0000.0,0008.12,0004.60,0004.22
2022-11-14 19:56:00,,0825.4,4.98,0.00,22.5,21.4,00.0,31.3,24.4,08.1,0000.0,0007.99,0004.57,0004.22
2022-11-14 19:57:00,,0825.4,5.01,0.00,22.5,21.3,00.0,31.3,24.4,08.1,0000.0,0008.79,0004.58,0004.23
2022-11-14 19:58:00,,0825.3,5.01,0.00,22.5,21.3,00.0,31.3,24.4,08.1,0000.0,0009.00,0004.58,0004.23
2022-11-14 19:59:00,,0825.3,5.00,0.00,22.5,21.3,00.0,31.4,24.4,08.1,0000.0,0009.07,0004.58,0004.23
